EW2804 Weather Reports


time (UTC)temp
F
wind
direction
speed
knots
gust
knots
rain 1hr
in
rain 24hr
in
rain mn
in
humidity
%
barometer
mb
20260906075407 79 128 0.0 0.0 0.00 0.00 0.00 76 1010.0
20260906074426 79 128 0.0 0.0 0.00 0.00 0.00 76 1010.1
20260906073423 79 128 0.0 0.0 0.00 0.00 0.00 76 1010.2
20260906072422 79 128 0.0 0.0 0.00 0.00 0.00 75 1010.3
20260906071349 79 128 0.0 0.0 0.00 0.00 0.00 74 1010.4
20260906070411 80 128 0.0 0.0 0.00 0.00 0.00 75 1010.4
20260906065420 80 128 0.0 0.0 0.00 0.00 0.00 74 1010.5
20260906062124 80 128 0.0 0.0 0.00 0.00 0.00 71 1010.4
20260906061126 80 128 0.0 0.0 0.00 0.00 0.00 70 1010.3
20260906055031 81 128 0.0 0.0 0.00 0.00 0.00 69 1010.4
20260906053955 82 128 0.0 0.0 0.00 0.00 0.00 69 1010.4
20260906052925 82 128 0.0 0.0 0.00 0.00 0.00 67 1010.5
20260906051929 83 128 0.0 0.0 0.00 0.00 0.00 66 1010.7
20260906044655 85 128 0.0 0.0 0.00 0.00 0.00 61 1010.4
20260906043625 86 128 0.0 0.0 0.00 0.00 0.00 60 1010.3
20260906042558 86 128 0.0 0.0 0.00 0.00 0.00 59 1010.4
20260906041603 87 128 0.0 0.0 0.00 0.00 0.00 58 1010.2
20260906040547 87 128 0.0 0.0 0.00 0.00 0.00 57 1010.2
20260906035534 87 128 0.0 0.9 0.00 0.00 0.00 57 1010.2
20260906034550 88 128 0.0 0.0 0.00 0.00 0.00 56 1010.3
20260906033559 88 128 0.0 1.7 0.00 0.00 0.00 55 1010.3
20260906032554 88 128 0.0 2.6 0.00 0.00 0.00 55 1010.4
20260906031548 89 178 0.9 4.3 0.00 0.00 0.00 54 1010.4
20260906030545 89 209 0.0 4.3 0.00 0.00 0.00 54 1010.3
20260906025535 89 123 0.0 4.3 0.00 0.00 0.00 54 1010.2
20260906024531 89 149 0.9 4.3 0.00 0.00 0.00 54 1010.2
20260906023552 90 132 0.9 3.5 0.00 0.00 0.00 53 1010.0
20260906022526 90 167 0.9 5.2 0.00 0.00 0.00 52 1009.7
20260906021526 91 157 0.9 7.0 0.00 0.00 0.00 51 1009.6
20260906020535 92 155 1.7 7.0 0.00 0.00 0.00 49 1009.5
20260906015521 91 123 0.9 6.1 0.00 0.00 0.00 49 1009.3
20260906013337 90 130 0.0 0.0 0.00 0.00 0.00 48 1008.8
20260906010211 93 130 0.0 0.0 0.00 0.00 0.00 45 1008.5
20260906005134 95 130 0.0 0.0 0.00 0.00 0.00 42 1008.4
20260906004138 96 130 0.0 0.0 0.00 0.00 0.00 42 1008.5
20260906003146 97 130 0.0 2.6 0.00 0.00 0.00 41 1008.4
20260906000941 98 93 0.0 0.9 0.00 0.00 0.00 37 1008.5
20260905235949 98 185 0.9 2.6 0.00 0.00 0.00 36 1008.4
20260905233850 99 156 0.9 4.3 0.00 0.00 0.00 35 1008.2
20260905232848 100 160 0.0 4.3 0.00 0.00 0.00 34 1008.2
20260905224523 100 244 0.9 7.0 0.00 0.00 0.00 34 1008.2
20260905223459 100 84 1.7 7.0 0.00 0.00 0.00 34 1008.2
20260905222440 100 119 1.7 6.1 0.00 0.00 0.00 34 1008.2
20260905221446 100 150 1.7 6.1 0.00 0.00 0.00 34 1008.3
20260905220444 101 173 0.9 4.3 0.00 0.00 0.00 34 1008.4
20260905214255 100 137 1.7 6.1 0.00 0.00 0.00 35 1008.6
20260905213230 100 137 1.7 6.1 0.00 0.00 0.00 35 1008.6
20260905212207 100 128 0.9 4.3 0.00 0.00 0.00 35 1008.8
20260905211146 100 119 1.7 5.2 0.00 0.00 0.00 35 1008.8
20260905205036 101 275 0.9 4.3 0.00 0.00 0.00 37 1009.2
20260905204027 101 125 0.9 4.3 0.00 0.00 0.00 35 1009.4
20260905203044 100 157 0.9 5.2 0.00 0.00 0.00 36 1009.4
20260905200901 99 22 1.7 6.1 0.00 0.00 0.00 37 1009.8
20260905195920 98 227 1.7 6.1 0.00 0.00 0.00 39 1010.0
20260905193753 98 90 1.7 6.1 0.00 0.00 0.00 38 1010.2
20260905192739 98 333 0.9 7.0 0.00 0.00 0.00 38 1010.3
20260905190549 99 200 1.7 4.3 0.00 0.00 0.00 39 1010.7
20260905185534 98 161 0.9 5.2 0.00 0.00 0.00 40 1010.9
20260905184551 98 187 1.7 7.0 0.00 0.00 0.00 40 1011.1
20260905182419 97 133 1.7 4.3 0.00 0.00 0.00 40 1011.4
20260905181420 97 196 0.9 6.1 0.00 0.00 0.00 41 1011.5
20260905180401 97 126 0.9 7.0 0.00 0.00 0.00 41 1011.7
20260905175331 96 46 1.7 7.0 0.00 0.00 0.00 44 1011.9
20260905174350 96 201 1.7 4.3 0.00 0.00 0.00 43 1012.0
20260905172233 96 261 1.7 7.0 0.00 0.00 0.00 47 1012.1
20260905171204 95 229 0.9 5.2 0.00 0.00 0.00 46 1012.2
20260905170224 95 219 0.9 4.3 0.00 0.00 0.00 44 1012.3
20260905165230 94 119 0.9 6.1 0.00 0.00 0.00 47 1012.3
20260905164218 93 43 0.9 6.1 0.00 0.00 0.00 46 1012.5
20260905163201 94 144 0.9 3.5 0.00 0.00 0.00 46 1012.4
20260905155902 92 246 0.0 2.6 0.00 0.00 0.00 52 1012.4
20260905154833 90 238 0.9 3.5 0.00 0.00 0.00 53 1012.6
20260905153805 91 286 0.9 3.5 0.00 0.00 0.00 53 1012.6
20260905152820 90 208 0.9 3.5 0.00 0.00 0.00 56 1012.4
20260905151746 89 161 0.9 4.3 0.00 0.00 0.00 58 1012.5
20260905150732 89 232 0.9 4.3 0.00 0.00 0.00 59 1012.4
20260905145741 88 273 0.9 2.6 0.00 0.00 0.00 61 1012.3
20260905144726 87 294 0.9 4.3 0.00 0.00 0.00 62 1012.4
20260905143652 86 147 0.9 4.3 0.00 0.00 0.00 65 1012.4
20260905142622 85 224 0.9 4.3 0.00 0.00 0.00 67 1012.4
20260905141626 84 242 0.9 2.6 0.00 0.00 0.00 69 1012.4
20260905140629 84 244 0.0 2.6 0.00 0.00 0.00 71 1012.3
20260905135616 82 213 0.0 1.7 0.00 0.00 0.00 75 1012.4
20260905132255 77 47 0.0 0.0 0.00 0.00 0.00 84 1012.2
20260905131234 76 22 0.0 0.0 0.00 0.00 0.00 85 1012.1
20260905130212 75 15 0.0 0.0 0.00 0.00 0.00 85 1012.0
20260905125140 75 100 0.0 0.0 0.00 0.00 0.00 84 1011.9
20260905124202 75 100 0.0 0.0 0.00 0.00 0.00 84 1011.8
20260905122109 74 128 0.0 0.0 0.00 0.00 0.00 84 1011.6
20260905115944 74 128 0.0 0.0 0.00 0.00 0.00 83 1011.4
20260905114954 75 128 0.0 0.0 0.00 0.00 0.00 82 1011.4
20260905113938 75 128 0.0 0.0 0.00 0.00 0.00 82 1011.3
20260905112937 75 128 0.0 0.0 0.00 0.00 0.00 82 1011.3
20260905111929 75 128 0.0 0.0 0.00 0.00 0.00 81 1011.2
20260905110918 75 128 0.0 0.0 0.00 0.00 0.00 81 1011.2
20260905104716 76 128 0.0 0.0 0.00 0.00 0.00 80 1011.3
20260905103729 76 128 0.0 0.0 0.00 0.00 0.00 80 1011.3
20260905102723 76 128 0.0 0.0 0.00 0.00 0.00 80 1011.3
20260905095519 77 128 0.0 0.0 0.00 0.00 0.00 78 1011.5
20260905094537 77 128 0.0 0.0 0.00 0.00 0.00 78 1011.3
20260905092412 77 128 0.0 0.0 0.00 0.00 0.00 76 1011.1
20260905091407 78 128 0.0 0.0 0.00 0.00 0.00 76 1011.1
20260905090428 78 128 0.0 0.0 0.00 0.00 0.00 75 1011.0
20260905084340 79 128 0.0 0.0 0.00 0.00 0.00 74 1010.9
20260905083342 79 128 0.0 0.0 0.00 0.00 0.00 73 1010.9
20260905082338 79 128 0.0 0.0 0.00 0.00 0.00 72 1010.9
20260905081332 80 128 0.0 0.0 0.00 0.00 0.00 72 1011.0
20260905080333 80 128 0.0 0.0 0.00 0.00 0.00 71 1010.9